DELTA 1 DEB, 10751

Orbit data source: Space-Track

DELTA 1 DEB, 10751 is space debris in LEO originally from a launch on Thu, 29 Jul 1976 UTC launched from the Air Force Western Test Range (AFWTR). Debris objects in space refer to the collection of defunct objects orbiting the Earth. Examples of debris include non-operational satellites, rocket bodies, and fragments generated from explosions, collisions, or faulty payload assembly.

Loading next visibility...
Identifier
10751, 1976-077AY
Orbit
LEO
Country
Flag of USUS
Related business
Manufacturer
Unknown
Mission
Spacecraft
Bus & Motor
Unknown
Mass
Unknown
Launch date (UTC)
1976-07-29 (50 years ago)
Launch vehicle
Unknown
Launch site
Air Force Western Test Range (AFWTR)
Object type
Payload
Rocket body
Debris
Shape & HBR
Unknown shape, 1.1 m
Radar Cross Section
Medium (>0.1 m² and <1 m²)

Expand to show TLE details & history
Last TLE update: 13 hours ago

TLE from 13 hours ago
0 DELTA 1 DEB
1 10751U 76077AY  26033.91663823  .00000123  00000-0  21227-2 0  9995
2 10751 102.0932  32.9770 0619214 225.3687 164.1325 11.55495158 81327
Epoch: 2026-02-02T21:59Z
TLE epoch observation values (Epoch: 2026-02-02T21:59:57.543Z)
Latitude
30.58016°
Longitude
-77.35954°
Altitude
2,384.438 km
Speed
6.543 km/s
True Right ascension
01h 42m 56s
True Declination
30° 27' 28"
Sunlit
Object was in daylight at epoch
Visualization orbit readout
Latitude
Unknown
Longitude
Unknown
Altitude
Unknown
Speed
Unknown
Apparent Right ascension
Unknown
Apparent Declination
Unknown
Sunlit
N/A
Visualization observer readout
Local Sidereal Time
13:16:12
Azimuth
Unknown
Elevation
Unknown
Doppler factor
Unknown
Orbital elements
Apogee altitude
2,395.779 km
Perigee altitude
1,372.552 km
Semi-major axis
8,262.302 km
Eccentricity
0.06192
Inclination
102.0932°
RAAN
32.977°
Arg. of periapsis
225.3687°
True anomaly
165.93749°
Mean anomaly
164.1325°
Eccentric anomaly
165.04788°
Mean motion
2.88996 °/min
Orbital period
124.57 mins
BSTAR
0.0021227
Loading maneuver chart data...
Computing Atmospheric mass density...
Loading historical data...
Loading historical data...
Loading historical data...
Loading historical data...
Loading historical data...
Loading historical data...
Loading historical data...

Documentation

Showing up to 5 results
|